Wind_Gust
20 25 30 34 33 32 22 20 17 12 11 20 14 19 18 18 13 8 16 13 23 26 29 29 26 25 20 20 21 22 23 24 23 24 25 22 21 21 21 22 24 25 24 15 16 14 15 16 15 14 14 14 14 15 16 18 17 19 19 19 17 18 18 19 19 18 19 19 18 16 16 14 13 13 14 13 12 13 13 12 12 11 12 12 13 13
21 26 31 26 12 12 14 11 14 15 11 11 20 21 17 19 20 19 22 12 18 21 19 15 23 24 21 21 21 22 26 27 28 26 25 27 25 22 23 23 25 24 15 14 15 15 15 16 15 14 15 15 16 16 18 18 18 18 19 19 19 17 18 19 19 20 20 19 20 18 17 16 14 15 16 14 12 13 14 13 12 12 12 12 13 12
28 37 30 16 11 13 17 18 20 22 13 8 19 23 20 21 10 9 15 13 16 19 14 18 24 23 19 21 21 24 27 28 29 30 30 30 28 26 25 26 23 19 18 17 18 16 17 16 16 17 15 16 17 17 19 18 18 19 20 19 18 19 19 18 19 21 20 17 16 18 17 17 15 11 12 15 14 12 14 12 10 11 11 12 12 12
29 33 13 19 12 17 19 22 21 25 20 12 8 23 28 18 23 23 17 12 15 22 12 16 23 14 9 14 21 22 26 25 24 28 26 24 27 31 29 25 22 21 22 21 20 19 19 17 17 17 16 16 17 17 17 19 20 20 18 18 18 19 17 19 21 19 17 16 15 15 15 15 13 15 15 14 11 12 14 14 12 12 11 12 13 13
24 9 21 20 22 18 20 23 25 28 26 17 10 11 18 18 22 11 19 13 12 8 9 18 20 14 16 19 22 21 20 20 23 22 22 22 23 23 16 17 20 22 22 21 18 17 19 20 18 17 16 17 17 16 16 17 16 15 20 18 19 20 19 19 18 19 20 20 18 18 16 16 18 14 14 15 12 11 13 14 13 12 11 11 13 13
18 10 19 27 23 20 20 25 31 28 27 19 15 13 9 14 16 9 14 20 22 19 16 23 20 27 15 19 23 21 19 22 20 22 26 27 24 20 22 22 19 19 19 20 20 19 18 18 16 16 18 17 17 18 16 16 18 20 22 20 19 17 18 19 19 21 20 21 25 24 21 17 15 15 13 15 15 11 11 13 11 13 12 12 13 13
24 8 15 28 28 24 22 23 24 25 28 22 18 17 11 7 14 14 14 20 23 31 24 18 28 19 10 21 21 23 20 20 20 21 24 26 26 25 23 22 20 22 20 19 18 18 18 19 18 17 18 19 18 16 18 17 19 20 20 19 18 19 18 20 20 21 22 24 22 20 21 19 19 20 13 11 11 13 13 12 12 12 11 12 14 12
21 21 11 13 28 31 27 28 25 31 28 33 8 14 15 10 12 12 15 18 8 10 10 15 21 18 18 21 21 22 25 26 25 25 23 22 24 27 25 24 20 22 19 20 21 21 20 20 21 19 20 19 19 18 19 18 17 19 20 19 20 18 18 17 19 22 21 21 19 19 19 17 15 14 16 13 13 11 12 14 12 12 12 12 12 12
26 30 21 16 21 31 33 21 18 25 33 20 8 14 16 17 10 9 12 13 8 15 21 23 9 24 20 13 21 24 26 28 28 28 28 28 29 31 29 27 22 20 21 20 21 21 21 20 20 18 20 18 19 20 20 19 19 18 19 20 18 18 18 19 20 20 18 21 21 19 20 16 14 15 17 16 13 14 11 15 11 13 13 13 13 12
21 26 21 14 18 28 16 17 20 24 27 12 11 8 8 8 8 11 9 12 9 17 27 25 22 34 12 11 24 25 27 31 32 31 30 30 31 33 34 30 24 20 21 22 20 19 20 20 19 18 19 21 21 19 19 19 19 19 20 19 19 17 17 19 19 19 18 18 19 19 19 22 21 18 18 14 14 13 11 14 12 11 11 11 12 12
10 23 16 21 21 12 17 16 21 23 16 12 15 15 12 9 10 8 6 9 9 18 22 18 21 20 21 21 28 34 39 29 27 27 29 29 29 31 30 30 30 25 21 21 20 19 19 19 18 17 19 21 19 19 19 21 22 19 20 19 19 18 17 18 19 20 20 18 18 20 20 21 21 19 20 18 15 13 12 14 12 11 11 11 12 12
8 16 23 18 11 12 18 17 18 24 18 19 24 23 16 10 9 11 8 8 20 26 13 17 25 17 30 21 23 24 14 28 29 26 30 32 35 36 31 32 31 26 21 20 22 20 21 21 21 20 19 21 21 20 20 19 20 18 19 19 18 17 16 17 16 15 15 16 20 18 18 19 20 21 19 20 18 14 16 14 14 11 11 12 11 11
11 16 12 13 19 18 27 24 18 25 16 25 22 23 23 21 19 19 17 23 29 25 10 9 21 15 35 16 21 30 25 24 30 29 32 33 32 32 31 29 27 26 21 21 20 21 22 23 23 22 22 22 23 24 23 20 19 18 18 19 18 17 16 15 16 17 22 18 21 22 18 17 17 15 18 19 18 15 16 14 14 12 13 12 13 11
14 6 11 15 17 23 24 33 31 30 28 28 33 33 32 30 26 24 28 18 11 10 8 13 19 29 12 16 16 28 32 30 30 30 27 30 29 27 29 28 26 21 20 20 20 23 21 22 21 21 23 25 23 23 23 21 19 17 17 17 18 17 17 18 18 21 20 17 18 20 21 19 18 16 17 18 20 16 15 13 14 12 12 12 12 13
18 21 25 23 26 22 29 28 28 22 34 33 22 32 28 23 31 27 25 27 21 19 11 8 23 23 23 13 21 29 32 33 31 29 23 14 13 14 20 27 26 22 19 23 22 22 21 22 24 22 22 24 23 22 22 20 20 18 16 16 17 18 18 20 21 18 21 18 20 17 15 16 15 16 17 16 14 17 16 13 14 13 12 13 13 14
16 12 16 15 6 24 24 16 12 17 19 13 10 12 15 23 12 12 12 14 16 18 15 19 22 11 16 8 10 9 11 20 16 13 13 13 16 20 23 29 30 29 27 26 24 23 22 23 22 23 22 23 22 22 19 19 20 19 18 16 17 19 18 21 22 20 16 17 19 20 19 18 16 16 16 16 14 14 14 15 15 14 12 12 14 14
16 16 12 16 7 25 21 16 20 19 38 28 16 32 24 12 15 13 6 9 7 12 18 10 12 10 15 9 11 9 13 14 19 20 18 17 19 23 24 28 29 29 27 26 27 25 25 23 22 23 25 23 22 20 20 20 19 20 19 17 16 17 16 17 20 20 16 16 19 19 19 17 16 17 18 18 16 16 14 15 15 14 14 13 14 15
23 14 8 24 15 16 15 21 16 16 13 22 27 20 12 9 11 11 14 9 12 23 19 11 19 11 16 22 8 11 16 16 19 23 25 22 22 27 30 31 31 29 27 23 22 24 25 25 23 22 21 22 22 21 21 21 19 20 20 19 18 17 17 17 19 19 19 19 19 20 18 17 17 17 16 17 19 17 17 14 14 14 15 14 14 16
10 16 17 18 19 16 7 16 19 11 7 20 21 9 33 23 19 9 12 14 18 19 15 13 7 10 16 15 12 12 20 19 18 21 24 24 27 27 27 28 28 27 25 25 26 27 27 27 26 26 22 22 23 21 21 21 18 19 19 20 20 19 18 17 16 16 16 19 18 19 20 18 18 16 17 17 17 16 17 16 14 13 14 15 15 18
8 12 20 8 20 14 16 21 31 31 9 8 12 20 10 10 13 13 22 10 16 9 9 11 9 21 18 17 18 20 23 24 23 25 26 31 32 30 30 32 33 29 26 25 26 28 28 26 25 24 24 24 23 22 22 20 20 21 21 18 16 19 17 16 18 18 18 15 18 18 17 15 17 18 18 18 19 17 16 16 16 16 15 14 15 17
6 8 18 16 7 16 25 29 27 28 27 21 26 23 18 17 9 14 9 9 10 15 14 13 12 15 16 18 18 22 25 25 28 31 29 30 30 29 30 33 33 30 29 28 27 28 27 23 22 22 23 23 22 20 21 20 21 22 19 18 22 23 20 17 17 18 16 18 17 21 20 18 17 18 18 17 16 17 16 15 15 14 14 14 15 17
6 6 10 15 20 25 17 11 8 19 18 19 19 16 14 20 18 25 24 10 9 8 11 16 19 16 19 7 17 22 22 26 29 32 30 28 29 29 29 29 31 31 26 28 27 26 28 24 23 22 22 23 23 22 22 20 20 21 19 20 19 21 21 19 17 16 16 14 17 16 21 20 16 17 17 17 16 16 17 15 14 14 15 15 15 16
11 7 10 17 18 16 13 13 9 15 16 12 20 14 15 13 13 25 22 14 9 7 11 8 6 14 10 6 9 12 8 16 21 20 20 20 25 27 28 27 27 25 26 27 26 26 25 22 23 25 25 25 23 21 21 20 21 22 21 19 20 21 19 19 17 15 16 17 18 17 16 21 19 18 18 18 16 17 17 15 13 12 15 16 16 15
9 7 9 13 13 9 7 6 7 15 17 14 19 11 19 26 16 15 16 12 17 9 7 6 8 18 10 7 9 10 10 13 15 13 15 21 22 25 26 28 28 25 24 24 23 22 22 20 21 24 24 26 23 22 22 22 22 23 24 18 18 21 20 18 17 17 18 19 21 21 19 17 18 18 17 16 15 16 14 15 13 12 14 17 17 18
14 7 8 22 24 19 8 12 12 9 24 28 30 18 18 14 11 7 10 7 15 15 12 12 11 16 11 11 8 8 12 18 20 17 19 23 24 25 27 27 28 26 24 25 23 22 22 21 21 23 24 22 23 23 21 23 24 24 22 17 18 18 19 20 18 19 19 21 22 19 19 18 17 18 17 16 16 15 15 14 14 13 16 17 18 17
6 7 8 18 24 22 25 25 29 29 34 26 16 16 11 19 16 15 20 13 20 9 9 13 16 21 14 10 10 10 13 14 15 19 19 22 25 27 27 26 27 28 27 22 21 24 26 25 21 23 23 23 22 23 23 23 23 21 18 15 15 19 18 19 18 18 20 19 19 18 19 19 17 17 17 17 17 16 15 14 14 15 15 17 19 18
7 5 5 9 15 26 22 15 12 13 15 21 14 16 14 10 16 14 12 12 21 8 10 15 18 16 22 11 9 12 13 18 22 23 27 28 27 27 23 22 25 25 27 27 23 22 21 21 23 22 24 25 22 20 22 25 25 21 18 18 15 18 20 18 17 17 18 18 19 19 18 18 17 18 17 16 16 16 16 15 15 16 18 17 18 19
10 6 7 8 9 13 11 10 10 19 23 22 17 17 13 14 12 13 20 24 11 18 15 16 8 9 24 17 12 15 15 16 21 24 25 27 30 31 27 22 21 24 24 23 20 22 23 22 23 23 23 24 24 23 23 24 25 22 21 22 18 16 17 16 18 18 20 19 19 19 19 17 17 18 18 17 16 16 15 15 16 16 16 17 17 18
11 5 7 6 9 13 12 14 10 15 20 17 19 16 16 13 15 19 15 10 14 19 19 12 10 13 22 19 18 17 18 24 27 28 26 26 27 25 25 25 25 25 25 25 25 23 24 24 23 25 24 25 27 27 22 21 22 20 21 22 21 17 16 16 18 20 21 20 20 19 18 18 17 17 18 18 18 17 17 16 15 16 16 16 16 15
11 12 8 6 15 17 14 15 13 14 11 17 17 19 17 16 17 16 15 11 15 9 13 8 12 20 19 10 12 12 14 17 19 20 24 29 32 30 29 27 27 26 27 26 26 26 25 25 25 26 25 25 26 29 29 23 20 17 20 21 23 22 18 16 17 20 21 22 21 20 19 20 18 19 19 19 18 18 17 17 16 16 16 16 16 16
7 14 5 6 12 15 9 8 13 17 13 16 12 17 18 17 17 18 16 8 5 13 10 6 8 21 12 8 6 9 14 18 20 24 28 29 29 29 31 30 27 25 26 28 27 25 24 24 26 26 26 27 28 28 30 24 22 19 18 22 23 23 20 18 18 18 20 21 21 21 21 21 20 20 20 18 18 17 18 18 17 17 17 16 16 16
6 12 5 8 11 12 9 8 12 12 13 16 14 13 18 19 20 12 17 14 13 17 9 5 12 25 11 7 10 13 17 21 24 26 28 30 31 31 31 31 29 29 29 29 28 28 27 28 28 31 31 31 29 27 24 23 21 22 20 20 23 23 21 17 17 19 20 22 22 22 22 21 21 20 19 18 18 18 17 17 17 17 17 17 16 15
10 8 8 6 11 6 10 6 15 17 13 9 14 22 21 15 8 10 6 7 15 13 13 10 25 10 10 15 17 15 18 19 23 27 28 26 31 34 34 32 29 29 30 30 32 32 31 29 29 30 29 29 28 26 25 24 24 23 23 22 21 22 20 19 19 19 21 22 23 23 22 22 22 21 19 18 18 17 17 18 17 17 17 16 14 14
6 8 11 5 6 6 11 8 15 19 15 19 13 8 20 21 16 14 13 16 14 15 16 14 10 8 12 17 19 22 24 30 32 28 26 32 34 30 27 28 31 33 32 31 30 33 31 30 27 29 24 21 21 22 24 23 25 23 24 26 24 23 21 21 19 19 20 22 23 23 23 23 23 22 20 18 18 18 18 17 16 15 13 14 13 12
5 4 8 5 6 7 8 7 18 17 17 8 5 7 7 7 14 21 18 14 12 12 9 11 9 9 15 15 11 10 12 8 11 22 23 25 26 29 31 34 34 34 36 34 32 30 32 32 31 27 28 24 26 23 23 22 19 18 16 22 26 22 23 20 21 19 21 22 23 24 24 24 22 21 20 19 19 18 18 17 15 15 12 12 14 13
6 6 7 5 5 6 8 12 21 17 9 6 8 6 6 8 6 8 8 8 12 19 16 11 9 9 11 13 11 9 11 11 11 15 19 25 29 32 33 34 34 34 34 34 31 31 34 33 32 32 29 25 26 23 23 25 20 21 20 17 19 21 21 22 21 20 21 22 23 24 24 24 23 23 21 20 18 17 16 17 20 22 19 18 15 17
11 7 4 7 5 6 5 5 7 8 7 7 9 9 15 13 14 14 15 11 9 11 16 10 7 8 9 8 10 13 13 14 14 17 19 26 29 27 31 33 32 33 30 28 27 26 22 22 25 26 27 28 26 24 21 22 22 22 23 22 20 20 20 21 21 22 23 23 24 24 24 25 26 23 24 22 20 17 17 17 17 16 16 15 14 13
7 11 7 7 8 8 5 9 9 10 10 10 9 7 6 6 5 5 8 9 5 8 9 11 10 12 12 11 13 16 15 17 13 19 24 26 25 22 20 21 22 21 23 22 22 22 24 24 26 26 29 29 28 26 23 23 24 28 26 24 21 22 20 21 21 20 21 22 23 23 22 23 25 25 23 21 22 20 18 17 16 17 18 19 18 16
8 12 8 7 8 5 5 10 10 10 9 10 7 6 5 6 7 8 7 14 8 6 10 12 12 16 18 18 18 20 17 14 16 18 21 27 27 26 25 23 23 23 25 27 29 27 26 27 28 28 28 30 28 24 24 24 25 26 27 26 26 21 22 21 21 23 23 22 20 21 22 23 24 26 25 23 21 20 21 20 19 17 17 17 17 17
10 6 9 10 5 4 7 7 6 11 12 4 7 7 7 7 9 10 17 16 6 8 9 12 14 18 17 17 20 22 19 15 17 16 20 26 25 23 27 26 26 25 26 24 24 27 27 26 27 27 28 28 28 29 28 25 25 24 26 26 26 25 23 23 23 22 21 22 19 19 22 22 22 21 23 22 20 20 20 19 19 18 17 17 18 18
9 10 8 9 7 6 5 5 5 8 9 7 7 9 6 8 9 15 17 11 8 8 9 13 13 17 20 21 22 21 12 9 11 14 22 23 22 20 20 21 23 25 26 26 26 20 25 28 31 32 30 29 28 27 27 27 27 25 24 26 27 27 27 23 21 22 22 22 22 22 23 22 24 25 22 20 21 20 19 20 20 19 18 18 17 17
6 4 4 6 6 5 5 4 7 10 11 6 8 8 8 10 15 10 11 7 5 7 5 11 13 17 20 20 22 10 6 11 10 10 22 28 28 25 24 24 22 21 20 21 22 25 26 26 25 26 25 23 28 27 27 27 27 26 26 24 27 25 22 23 22 22 22 22 22 23 23 22 22 23 22 20 21 21 20 17 17 18 19 18 18 18
17 9 8 8 6 5 10 8 6 13 6 6 13 7 5 8 13 9 7 6 9 7 7 9 13 15 19 18 11 7 6 8 9 14 18 20 22 25 26 25 26 26 26 25 24 25 27 27 27 28 27 23 23 25 26 27 27 25 25 26 25 22 24 24 22 21 21 21 21 22 23 23 23 21 20 20 20 22 20 18 18 17 18 19 19 19
9 8 7 9 14 8 4 6 7 8 12 6 7 6 7 7 7 7 6 8 6 8 7 8 10 13 18 16 15 8 6 8 10 14 14 15 15 18 19 19 20 20 22 21 24 25 25 26 26 25 23 22 24 24 24 27 26 24 24 24 17 18 19 21 20 21 21 21 20 19 21 22 24 22 21 22 22 21 22 21 20 19 19 20 21 21
8 6 12 7 7 8 8 8 8 10 11 10 6 7 8 9 7 7 7 8 8 6 7 6 9 9 14 15 11 10 7 6 8 14 17 20 21 22 24 23 23 23 24 27 26 24 24 27 27 26 23 23 23 24 25 25 26 25 25 22 21 22 24 23 21 21 22 21 19 20 20 22 22 22 22 23 24 23 24 22 21 21 18 20 20 21
3 5 6 7 7 8 9 11 9 9 9 12 9 9 10 10 9 6 7 8 7 8 8 7 7 7 11 13 13 8 7 9 11 12 12 16 18 19 18 19 18 18 20 22 21 24 23 24 24 24 24 22 23 23 22 23 25 27 25 22 22 25 25 23 23 21 21 21 20 20 19 20 20 20 21 21 21 22 22 23 22 21 20 20 20 21
6 7 6 6 5 9 8 4 4 6 8 13 12 10 7 7 8 7 7 7 9 9 6 6 7 7 9 14 14 13 12 12 12 13 14 16 19 19 22 22 22 23 23 23 23 23 23 24 25 24 23 23 21 21 22 20 17 18 20 23 23 22 24 23 22 20 19 21 20 18 18 21 21 21 21 21 21 22 22 22 23 22 21 22 22 21
5 6 3 4 3 4 4 5 7 8 8 12 10 9 10 13 13 9 7 7 8 7 7 7 6 9 9 12 12 13 11 10 13 14 17 18 19 21 22 23 23 22 21 21 22 22 22 23 23 24 24 24 21 19 20 19 18 20 23 23 23 23 22 22 23 24 22 22 20 21 19 18 16 21 21 21 21 22 22 21 22 23 23 24 24 23
5 5 4 6 6 8 7 7 11 6 6 8 7 5 7 8 11 11 10 9 9 9 9 9 10 7 6 9 8 10 10 8 6 9 14 16 16 17 18 19 21 23 25 23 23 23 26 24 24 26 25 21 20 20 18 17 17 22 25 24 23 24 23 23 21 20 20 20 20 20 19 18 21 20 21 20 18 17 19 21 21 20 19 17 20 21
5 5 6 6 5 4 9 7 6 7 5 5 9 11 11 9 8 9 9 9 10 11 11 11 12 10 10 8 8 8 8 9 8 10 12 14 16 16 17 18 19 20 21 20 19 19 20 21 23 23 21 19 20 21 21 19 18 20 23 23 23 24 23 21 21 20 21 20 20 19 19 17 17 18 20 21 20 18 13 3 7 14 19 18 10 11
4 6 9 4 8 5 8 8 9 7 7 6 7 9 9 8 6 6 7 7 7 6 7 9 9 10 11 10 8 8 9 11 10 11 12 13 14 16 19 21 23 22 22 20 21 19 21 18 18 19 18 19 19 22 22 21 22 23 23 21 21 23 22 25 22 20 19 20 19 21 19 19 20 20 20 19 19 17 16 14 8 10 11 7 11 13
Wind_Speed
8 11 13 16 16 18 15 14 11 7 5 11 7 11 9 9 6 3 10 7 14 14 17 17 17 16 12 12 12 13 14 15 14 15 13 13 13 13 12 13 14 16 14 9 10 9 9 10 8 8 8 8 9 9 10 10 10 11 10 11 10 8 9 10 9 9 8 9 8 7 7 5 5 6 6 5 5 5 5 5 4 4 4 5 6 6
10 12 15 16 8 7 9 6 8 9 6 4 11 12 8 10 9 11 13 7 10 10 10 10 15 16 13 12 13 13 15 16 15 16 16 17 15 13 14 15 16 15 8 9 9 8 9 9 10 8 8 9 10 9 11 11 11 11 12 11 10 9 9 10 10 9 9 8 8 7 7 6 6 6 6 6 6 6 7 7 4 4 5 6 6 5
12 17 16 10 5 7 10 11 13 14 8 2 8 11 10 9 4 5 9 8 8 10 6 10 14 13 12 12 12 15 16 15 16 18 18 18 18 15 15 16 15 11 10 9 9 10 10 10 10 9 8 9 10 10 12 11 11 12 11 10 10 9 9 9 9 8 8 7 6 6 6 6 5 4 3 4 6 6 6 5 4 4 5 5 5 5
13 16 8 11 7 10 12 14 14 15 12 5 2 10 12 9 11 9 9 7 8 8 4 9 13 6 3 8 12 13 15 13 15 17 16 15 17 19 19 16 13 13 11 12 11 11 10 10 9 10 9 9 10 10 10 11 12 11 10 10 10 10 9 8 8 8 8 8 8 8 8 5 2 4 7 5 4 4 7 6 4 5 5 5 6 6
12 2 13 12 14 12 13 15 16 14 12 9 5 4 8 10 12 5 8 6 7 2 2 10 9 5 7 9 9 11 12 11 13 14 14 14 14 14 10 10 12 14 14 12 11 11 11 12 10 10 10 10 10 9 10 10 9 7 9 10 11 10 9 8 9 11 11 10 10 10 9 8 8 8 5 5 4 5 4 5 6 5 5 5 6 6
10 3 12 17 15 13 12 13 17 15 13 8 9 7 4 9 10 3 9 12 8 8 7 14 5 10 7 10 11 10 9 13 12 14 15 17 15 13 14 14 12 11 12 12 12 12 11 11 10 10 11 11 10 10 9 9 10 12 12 10 10 8 9 10 11 13 10 11 14 13 11 8 7 7 5 4 5 3 2 5 5 6 5 5 6 6
12 4 9 18 18 16 14 12 16 16 13 10 7 11 5 3 9 8 8 11 10 12 11 10 12 3 3 10 11 12 12 12 11 13 15 16 16 15 13 11 11 13 11 11 11 11 12 12 11 11 11 12 11 10 10 9 11 12 12 11 10 10 9 11 12 14 12 12 12 12 11 10 10 10 6 5 5 5 2 5 5 5 5 6 6 6
9 13 5 8 18 17 14 13 13 19 13 13 3 8 9 4 7 7 9 10 1 5 4 9 8 6 5 9 12 13 15 16 16 15 14 11 13 16 15 14 13 13 12 12 13 13 12 13 13 12 12 11 11 11 11 9 9 12 12 12 12 10 10 9 11 13 12 11 10 10 9 7 7 8 9 7 7 6 4 6 5 4 5 6 6 6
16 17 13 9 14 14 15 12 11 16 13 6 4 8 9 10 5 4 6 5 2 7 9 10 4 7 6 4 12 15 16 17 18 17 17 17 19 19 18 17 15 13 13 13 12 13 13 13 12 11 12 11 12 12 12 10 9 10 11 12 11 11 11 10 12 11 10 9 9 8 10 8 5 7 8 8 7 8 6 8 5 5 6 6 6 6
8 16 13 8 9 12 8 10 13 15 12 6 6 3 2 4 3 5 2 4 3 6 12 13 11 11 3 4 10 14 15 17 18 18 18 19 19 21 20 19 16 12 13 13 13 12 12 12 12 11 12 12 11 11 12 12 11 10 11 11 12 11 10 10 12 10 10 9 7 6 7 8 8 9 9 8 7 6 6 7 6 5 5 5 5 6
5 15 10 8 9 5 9 10 13 15 10 7 9 8 5 3 4 1 1 1 2 5 10 11 13 10 6 9 12 15 16 15 13 13 14 16 18 19 19 19 17 14 12 12 12 12 12 13 11 11 12 13 12 10 12 11 12 12 11 11 12 11 9 10 10 11 12 9 9 10 12 11 12 11 12 10 7 6 6 7 6 5 4 4 5 5
3 9 10 6 6 5 11 8 11 15 11 11 8 10 6 3 3 4 1 1 5 9 6 10 15 10 12 8 10 11 6 16 14 15 18 19 21 20 19 18 19 16 12 12 13 12 13 13 13 12 12 14 13 12 12 11 12 10 11 11 11 10 10 9 8 6 6 8 11 10 11 12 11 10 10 11 10 7 9 8 6 4 5 5 5 5
5 8 5 7 10 11 14 13 8 14 9 12 10 10 10 7 4 5 5 7 10 8 3 4 13 4 16 1 10 15 14 15 18 16 18 21 20 20 18 18 16 15 14 13 12 12 13 13 13 14 14 14 15 14 14 11 11 10 11 12 11 10 10 9 9 12 15 12 13 13 11 10 9 8 9 9 10 8 8 7 7 5 5 5 5 5
5 2 6 9 10 11 13 14 12 13 13 15 15 14 13 10 8 7 11 2 3 3 2 6 12 11 3 4 9 17 19 18 18 18 16 18 18 17 17 16 15 13 11 11 12 12 12 13 11 13 14 15 13 14 14 13 11 10 9 10 11 11 11 11 11 10 11 10 11 13 12 10 8 9 7 7 8 8 7 6 7 6 5 5 5 6
8 9 11 13 9 12 14 13 14 11 17 15 12 14 12 8 4 6 7 8 8 7 4 3 8 5 11 3 12 16 18 17 17 17 14 8 5 8 12 15 16 14 12 13 12 11 13 13 15 13 14 13 14 14 13 12 12 10 9 9 11 11 11 13 11 10 11 9 12 11 9 9 8 8 7 5 5 8 9 6 7 6 5 6 6 6
10 4 8 8 2 14 14 9 5 9 8 4 2 1 4 9 2 2 1 4 6 6 5 6 3 1 5 2 4 1 6 12 10 7 5 5 7 9 11 16 17 17 16 15 15 14 14 15 14 14 13 14 13 14 11 12 12 11 10 10 11 12 12 13 14 11 9 8 10 13 11 9 7 7 6 6 5 6 6 7 7 6 5 6 7 6
6 5 7 8 2 16 13 9 9 10 12 11 5 13 10 4 3 3 2 4 3 2 5 1 3 3 2 1 4 4 6 8 11 11 9 8 11 12 13 16 18 17 16 15 16 14 15 14 13 14 15 13 13 12 12 12 12 13 12 10 10 11 10 11 13 11 8 9 12 10 10 10 9 8 10 9 8 8 7 7 6 6 6 7 7 7
9 5 4 13 9 9 9 13 10 9 2 7 9 7 6 3 4 1 4 0 3 8 3 3 9 5 7 6 1 5 9 9 11 14 14 12 12 14 14 16 18 17 17 15 14 15 15 16 15 14 13 14 14 14 14 14 13 12 11 12 11 10 10 10 11 10 11 11 11 12 10 10 10 8 8 8 11 9 8 7 6 7 7 7 6 7
3 6 6 11 11 9 3 9 11 5 3 8 9 3 11 7 8 1 1 4 6 6 3 4 2 2 7 5 4 6 11 11 11 12 14 14 15 16 15 17 17 17 15 13 15 14 15 15 16 15 14 14 15 14 13 13 10 10 11 12 12 11 11 11 9 8 9 10 10 10 11 10 10 9 9 8 8 8 9 8 7 7 7 7 8 8
2 2 7 3 8 7 7 9 13 14 3 4 5 8 2 1 6 4 1 1 3 2 2 4 3 5 7 5 10 11 13 15 13 13 16 19 20 17 15 17 19 18 14 15 16 15 16 15 16 15 16 16 15 14 13 12 11 13 12 11 10 12 10 8 9 9 8 8 10 10 9 9 9 10 10 10 11 9 9 8 9 9 8 7 7 8
0 2 5 5 1 8 9 9 12 13 12 9 11 9 4 2 2 3 1 2 1 2 4 2 3 3 4 6 7 12 15 15 17 17 16 17 18 16 17 19 19 18 16 16 15 16 17 15 14 14 14 14 13 12 12 12 13 13 11 10 12 14 13 9 8 9 7 8 9 13 12 10 10 11 10 10 9 9 8 8 8 7 7 7 7 9
0 0 3 5 7 11 6 3 3 11 10 9 8 7 6 9 7 11 9 3 1 1 2 4 5 1 5 1 9 12 10 13 18 19 17 18 17 16 15 18 19 18 16 17 17 16 16 15 14 13 13 13 13 13 14 12 12 13 12 11 10 11 11 9 8 9 8 8 9 10 13 12 9 9 9 10 9 9 9 8 7 7 7 8 8 8
1 0 2 6 7 7 7 8 5 8 9 5 9 4 7 5 2 9 8 5 2 1 1 1 1 2 3 0 2 4 2 6 8 10 9 9 12 14 15 17 17 16 17 16 16 15 15 14 14 15 15 15 14 13 13 12 12 13 13 13 13 12 11 11 9 8 9 8 10 10 10 12 11 10 11 11 9 10 9 8 7 6 7 8 8 7
4 0 2 5 6 3 1 1 2 9 10 7 10 5 8 12 8 5 4 2 5 3 2 1 1 1 3 2 2 2 4 6 7 7 6 9 10 13 16 18 18 14 13 14 14 13 12 12 13 14 15 14 13 13 13 12 12 13 13 10 8 11 12 10 10 9 11 11 12 13 11 10 9 10 9 9 8 9 8 8 7 6 7 9 8 8
2 1 2 9 7 6 3 5 4 5 10 10 12 8 10 6 5 1 2 2 4 7 4 2 2 2 3 2 2 2 5 10 11 10 11 13 13 15 16 17 16 16 15 16 15 14 14 13 13 13 14 13 13 13 12 13 13 13 13 10 10 10 10 11 10 10 11 12 14 11 11 11 10 10 10 10 8 9 9 8 7 6 8 9 9 8
1 2 2 6 10 9 10 10 11 13 16 10 9 9 6 12 10 7 8 4 7 2 4 4 4 9 3 3 4 4 6 7 8 11 11 13 16 16 16 15 16 17 14 15 15 16 17 15 13 14 13 12 13 13 13 13 13 12 10 9 8 11 10 11 9 10 11 11 11 11 12 11 10 10 11 10 10 10 8 7 7 8 7 9 10 9
1 0 1 2 5 12 10 2 6 7 6 9 8 10 8 6 10 8 3 2 8 2 2 5 10 8 13 3 3 6 7 10 12 14 15 16 16 16 13 12 12 12 15 16 15 14 13 13 13 14 15 14 13 11 14 14 14 12 9 9 9 10 11 9 9 10 10 10 11 11 10 10 10 10 10 9 9 8 8 8 8 8 9 8 9 10
2 1 1 3 4 6 4 3 3 11 13 13 11 11 8 8 7 8 8 8 5 3 6 3 1 3 13 10 5 8 8 9 12 14 14 15 17 18 17 14 16 14 15 14 12 14 15 14 14 14 14 16 14 11 13 14 14 12 12 12 9 8 9 8 10 10 10 11 10 11 11 9 10 10 10 9 9 8 8 8 8 8 8 8 9 9
3 0 1 1 4 6 7 8 5 5 12 10 13 10 10 8 9 11 6 3 8 7 5 4 3 6 12 10 2 7 10 11 12 14 15 16 16 16 16 16 16 17 17 16 15 14 15 15 14 16 15 13 15 16 11 12 12 11 12 12 12 9 9 9 10 11 12 11 11 10 10 10 9 9 10 10 9 9 9 8 7 8 8 8 7 6
1 1 2 2 8 10 8 9 7 8 3 10 11 13 11 10 11 9 8 5 7 4 6 3 1 12 10 5 3 5 8 10 11 12 13 18 20 20 19 18 17 17 17 17 16 16 16 16 16 17 16 15 17 18 17 14 11 10 12 11 13 12 10 9 9 11 12 12 11 11 11 10 9 10 9 9 9 9 9 8 8 8 8 8 8 7
2 0 1 2 5 8 4 2 7 11 8 8 8 11 12 11 11 12 10 3 1 6 4 1 4 12 3 2 1 3 7 9 11 15 18 18 19 19 21 20 17 16 17 18 18 16 16 16 16 16 16 17 17 19 18 14 10 9 9 11 13 13 11 10 10 10 11 12 11 11 11 11 10 10 10 9 9 8 9 9 8 8 8 8 8 8
2 2 0 2 4 3 4 3 6 8 8 10 8 8 11 12 12 6 4 6 7 9 4 1 5 11 1 2 5 6 9 12 15 16 17 17 19 20 21 20 19 19 19 19 17 16 17 17 18 20 20 19 18 16 14 13 12 11 11 11 13 12 11 9 10 11 11 12 12 12 12 11 11 10 10 9 9 9 8 8 8 9 9 8 8 7
2 2 2 2 4 1 5 2 9 11 7 2 7 13 13 10 5 4 0 2 9 7 6 4 12 3 1 6 8 8 10 10 13 16 17 17 19 21 22 21 18 19 20 19 21 19 18 18 19 19 18 19 17 15 15 14 13 13 12 12 11 11 11 10 10 10 11 12 12 12 11 12 12 11 10 9 9 8 8 8 8 8 9 8 7 7
1 3 4 0 2 2 6 3 10 8 5 6 1 3 12 12 8 8 6 9 8 7 5 4 2 2 3 8 8 10 13 12 11 13 15 17 19 18 17 18 20 20 20 18 20 20 19 16 16 17 15 14 13 13 15 13 14 12 12 13 13 13 10 11 10 10 11 11 12 12 12 12 12 12 11 9 9 9 9 9 8 7 6 6 6 6
2 0 2 1 2 1 2 2 7 4 4 3 1 1 3 2 9 14 12 9 7 7 4 5 4 4 7 8 5 3 6 4 6 13 14 15 16 15 18 21 22 22 22 21 19 19 20 21 18 16 15 13 13 12 13 11 11 10 7 11 14 12 12 11 12 11 11 12 12 13 13 13 12 11 10 10 10 9 9 9 7 6 4 5 7 7
1 2 1 1 1 1 1 3 3 3 3 2 3 2 1 3 1 2 4 4 7 12 10 5 2 3 5 7 6 3 6 5 5 8 12 16 18 20 20 20 22 21 22 21 21 20 22 21 21 21 19 14 13 11 11 11 11 11 10 7 9 12 12 13 12 12 12 13 13 13 13 13 12 12 11 11 10 9 9 8 6 7 5 5 4 6
4 2 0 1 1 1 0 0 1 3 1 3 4 3 5 4 6 6 5 5 5 5 9 4 2 2 4 3 5 6 7 6 6 8 12 16 18 18 19 20 20 21 19 18 17 17 14 14 15 16 16 16 15 13 12 10 12 13 12 10 5 9 11 12 12 12 13 13 13 13 13 13 13 13 13 12 11 9 9 10 9 8 7 7 5 5
2 5 1 2 1 0 1 2 2 2 2 1 1 2 1 3 1 1 2 4 1 2 3 5 4 5 6 5 7 8 8 6 4 8 14 16 17 16 14 15 15 14 15 15 15 13 14 15 14 15 17 17 17 15 13 14 13 14 14 12 10 10 11 12 12 12 12 13 13 13 12 12 12 12 12 11 11 10 9 8 7 8 8 9 9 8
2 3 0 1 1 0 1 1 1 2 1 1 1 2 1 1 3 3 2 6 1 1 5 6 6 7 10 10 10 10 8 5 5 3 10 16 17 17 16 15 14 14 15 16 17 17 16 16 18 17 16 17 16 14 13 14 15 14 14 13 13 11 11 11 11 13 12 12 11 12 12 13 13 14 14 13 11 10 11 10 9 8 8 8 8 8
3 1 3 3 1 1 0 0 1 1 3 1 3 3 2 2 4 5 6 3 2 3 4 6 8 10 11 10 11 11 8 1 2 2 11 17 16 15 17 17 17 15 16 15 15 16 17 17 17 17 17 17 17 17 16 15 14 15 15 15 14 14 13 13 12 13 11 10 10 11 11 11 12 11 10 10 10 10 10 9 9 9 8 8 8 8
1 0 2 2 2 1 2 1 1 0 2 3 3 3 1 3 3 6 4 1 0 2 3 6 7 10 12 12 11 8 3 3 5 5 9 15 14 13 12 13 14 15 16 17 16 14 14 16 18 18 18 16 16 16 16 15 14 14 13 14 15 16 15 13 11 11 11 10 10 11 12 11 13 14 12 11 11 10 9 9 9 10 9 9 7 8
1 0 1 2 1 1 1 0 1 1 2 2 2 4 2 2 5 1 2 1 1 3 1 5 7 9 12 11 9 1 1 5 5 1 11 15 16 16 14 14 13 13 12 14 15 15 14 14 15 17 16 14 16 16 15 15 15 14 12 11 12 13 12 13 12 11 13 13 12 13 13 12 12 12 11 10 10 9 9 8 8 8 9 8 9 9
2 0 1 2 0 1 0 1 1 3 0 3 8 0 0 1 1 2 2 1 3 3 2 3 5 7 10 9 5 2 1 3 4 6 11 12 12 14 14 14 14 14 15 14 15 16 16 15 16 16 15 13 14 14 14 16 16 14 14 15 16 12 13 13 12 12 11 11 12 13 13 12 14 11 9 10 11 11 10 9 9 9 9 9 10 10
2 0 1 1 3 2 1 1 1 1 4 2 3 1 2 2 2 2 2 3 0 2 2 1 4 6 10 9 9 2 1 2 4 8 8 9 10 11 11 11 12 12 12 12 15 16 16 15 15 14 14 13 14 13 14 15 14 13 13 13 9 10 11 11 10 11 11 10 10 11 11 12 13 12 10 12 11 11 11 11 10 9 9 10 10 9
3 2 1 2 0 0 2 1 2 3 5 3 1 2 3 4 2 2 2 3 2 1 1 1 1 4 8 7 6 4 2 1 2 7 10 12 12 14 15 14 13 14 15 16 16 15 15 15 17 15 13 12 14 14 14 14 14 14 13 11 11 12 13 14 12 11 12 11 10 10 11 11 11 11 11 12 12 12 12 12 11 9 9 9 9 10
2 1 2 2 2 3 4 6 4 4 4 6 2 4 4 5 4 1 2 3 3 3 1 2 2 1 5 7 7 3 2 3 5 5 6 9 11 12 12 13 12 11 13 13 13 14 14 14 15 15 15 13 14 13 13 13 14 16 15 12 12 12 14 14 14 13 13 12 11 9 10 11 11 11 11 12 10 11 10 11 11 10 9 9 9 9
1 3 2 2 3 1 1 1 1 2 3 7 6 5 3 2 3 2 3 2 4 4 1 1 2 2 3 8 8 7 6 6 7 6 8 8 10 11 13 13 13 15 14 15 14 15 13 15 14 14 14 14 13 12 12 12 10 11 11 13 13 13 14 13 13 11 11 11 11 10 9 12 10 10 10 11 10 10 10 10 11 10 10 10 10 10
1 2 0 1 0 0 1 1 2 3 3 5 4 4 4 6 7 4 2 2 2 2 2 2 1 3 4 6 6 7 6 5 6 7 8 9 10 12 12 13 14 13 13 13 14 14 13 13 14 15 15 12 12 11 11 11 10 11 13 13 13 13 13 12 14 14 13 11 11 11 10 9 12 12 10 10 10 10 10 10 10 10 11 11 11 11
1 1 0 2 0 2 3 3 4 1 3 2 2 1 2 3 5 6 5 4 4 4 4 4 4 2 2 4 3 4 5 3 1 4 7 8 8 9 10 11 13 14 15 14 14 15 15 14 14 15 15 12 11 11 10 10 9 12 15 14 13 12 12 12 13 12 11 11 10 10 10 9 11 10 10 9 9 8 9 10 9 9 9 9 9 10
1 2 1 1 0 0 2 1 1 2 1 1 4 6 6 4 3 5 4 4 5 5 5 5 5 5 4 3 3 3 3 4 3 5 6 6 8 9 10 10 11 12 13 12 10 12 12 13 14 14 12 10 11 12 12 11 9 11 13 13 13 13 12 11 10 11 12 11 9 9 10 8 8 9 10 10 9 8 6 1 0 5 9 8 5 6
1 2 4 0 1 1 1 2 4 1 3 2 3 5 4 3 2 2 3 3 3 2 3 4 4 4 5 5 3 1 3 3 4 5 6 6 7 8 10 13 13 12 12 12 12 11 12 11 12 12 11 11 11 12 12 11 12 13 13 12 12 13 13 14 11 10 9 10 9 11 10 10 9 8 8 8 8 7 7 6 2 9 9 1 9 8
Wind_Direction
165 199 195 201 204 199 197 201 212 21 358 127 154 179 196 188 166 177 193 175 189 181 203 197 199 198 188 184 187 191 190 202 202 201 203 204 203 202 206 208 214 219 219 199 191 178 187 190 174 163 158 157 153 151 154 158 154 146 143 145 146 149 152 154 154 155 152 153 148 143 143 134 144 140 136 133 136 136 128 126 125 119 122 132 129 128
192 214 219 211 193 166 175 181 209 251 310 208 171 186 182 195 196 185 192 155 197 194 197 190 195 200 189 180 186 188 191 201 202 201 204 205 203 203 206 211 214 218 213 196 183 175 186 183 169 158 161 154 153 156 156 157 153 145 145 147 147 157 163 164 163 160 162 161 157 154 153 142 145 142 140 139 141 135 133 131 125 116 114 124 120 118
204 218 219 189 137 163 173 184 199 219 233 357 195 182 186 193 170 163 200 174 178 207 195 177 199 198 188 184 185 189 195 201 202 204 203 201 202 204 209 214 213 206 202 198 194 187 186 178 166 169 164 162 157 158 157 153 146 145 145 145 159 166 169 170 163 160 158 153 145 140 141 137 128 113 98 112 129 114 105 86 73 101 105 105 94 94
208 229 190 148 171 169 173 185 187 211 230 244 219 185 198 160 175 185 202 175 179 196 168 175 200 192 188 194 194 197 197 203 206 208 210 208 208 209 210 210 207 206 204 207 198 193 190 180 169 170 161 163 153 153 152 151 150 148 136 155 164 167 168 162 152 145 138 138 118 96 90 61 77 123 114 74 59 83 100 86 75 66 79 88 93 91
199 78 153 172 183 185 175 177 188 196 214 220 240 232 183 164 193 190 164 157 136 52 164 157 189 206 200 186 196 202 206 208 205 207 205 205 216 219 219 221 215 209 208 207 198 193 194 193 183 171 162 157 153 151 151 149 142 109 136 168 166 167 162 150 145 137 132 123 107 102 102 110 98 83 67 83 64 27 55 78 66 63 59 70 83 81
213 310 172 175 183 188 177 181 193 190 206 211 221 230 224 182 184 133 125 140 177 191 186 161 162 215 189 201 192 181 197 210 202 204 206 209 210 211 214 217 214 211 210 203 196 191 183 184 184 173 160 160 157 153 149 142 128 140 179 169 167 159 157 151 141 137 133 137 141 138 136 132 131 124 135 140 127 103 30 66 81 71 60 67 72 74
209 172 193 179 175 185 189 195 189 187 198 204 207 207 216 225 193 173 157 170 183 200 185 210 207 186 162 204 194 186 191 192 193 208 211 210 213 212 217 211 209 209 201 190 182 180 177 178 178 170 163 162 159 154 148 142 143 158 171 173 166 160 154 142 138 141 144 155 156 152 151 147 147 138 131 121 108 96 77 88 76 74 64 62 67 66
178 209 203 195 180 181 191 195 183 186 188 202 138 176 190 186 163 182 175 202 188 32 107 199 229 219 197 214 192 186 196 199 198 203 211 204 205 214 214 212 205 205 195 185 186 184 179 175 181 182 170 160 157 153 152 148 152 165 167 168 167 154 145 139 142 151 158 157 151 144 129 136 146 137 127 123 109 110 128 92 82 76 63 59 58 63
180 202 202 188 194 189 196 190 159 188 194 169 142 159 178 199 182 153 173 181 167 183 191 195 160 220 224 143 176 182 196 207 209 207 208 210 213 216 216 214 207 201 193 186 186 186 183 178 183 179 170 157 152 156 157 155 157 160 165 166 158 148 143 141 141 146 157 155 152 145 147 134 122 122 122 127 125 126 125 102 87 81 76 65 56 58
191 206 200 196 192 199 175 140 168 185 192 157 171 148 134 176 198 224 183 166 155 195 210 185 180 211 163 171 183 189 201 203 207 209 211 213 216 218 217 216 205 197 192 188 184 180 180 178 178 174 165 157 158 161 158 160 162 161 160 161 159 148 141 144 146 152 162 150 139 148 139 132 130 129 127 126 126 123 112 103 97 85 82 79 75 67
183 191 202 183 202 181 149 166 167 185 191 110 136 162 131 134 183 143 302 194 163 225 222 161 181 217 212 194 194 185 203 194 195 204 212 215 219 221 219 215 208 199 189 183 179 173 173 175 167 159 162 163 156 161 164 164 168 160 160 162 163 154 144 148 154 163 168 153 147 158 150 141 143 145 140 134 126 119 111 105 98 93 88 86 88 87
240 185 184 191 181 175 177 158 180 180 185 165 179 183 161 156 148 173 142 205 213 228 141 166 184 191 222 184 201 201 163 194 192 198 206 211 215 215 213 212 211 204 188 183 176 170 166 166 165 160 159 165 159 160 160 158 163 165 162 160 157 149 151 155 153 136 146 153 161 157 144 151 151 148 146 143 138 133 118 113 112 109 102 93 91 88
232 192 158 155 190 188 177 173 172 184 185 198 181 183 187 169 173 178 170 196 216 215 97 168 159 166 230 183 179 196 203 195 201 202 203 206 213 212 210 210 207 201 183 182 176 167 169 172 167 163 160 158 159 160 162 161 165 167 162 161 150 145 148 132 113 154 177 171 165 153 148 147 145 137 146 144 134 133 123 123 124 126 117 117 108 95
210 220 182 172 176 201 187 179 163 183 191 196 192 183 187 178 183 195 193 194 96 69 45 167 170 222 60 243 196 194 199 201 202 209 210 207 208 201 199 201 201 191 170 173 183 176 169 169 164 161 163 162 161 163 165 165 158 157 157 157 149 140 135 130 153 166 168 168 156 149 145 144 142 141 145 148 136 129 119 128 129 129 126 118 112 109
161 174 190 170 192 181 197 197 176 183 183 194 202 193 200 186 197 179 183 178 186 157 104 160 164 218 165 185 166 195 201 201 203 208 212 203 144 166 188 200 204 191 180 180 179 176 168 162 164 162 163 164 164 160 158 155 151 150 150 153 145 141 142 141 153 162 175 167 154 137 131 140 141 137 141 134 126 122 120 121 119 117 115 115 116 109
184 171 154 187 75 174 195 194 138 137 176 227 3 51 200 211 336 118 113 120 124 121 115 172 212 211 168 34 338 258 197 204 205 205 175 160 167 168 175 198 203 199 191 188 186 176 168 166 162 163 161 162 158 155 151 152 151 152 151 148 142 145 148 154 157 162 173 166 140 135 146 131 123 129 125 117 108 98 104 118 121 121 115 116 113 107
164 191 135 181 322 184 190 166 195 176 179 174 176 201 201 97 100 100 63 28 53 132 186 95 249 241 314 329 25 169 165 191 204 213 201 184 175 174 188 199 201 197 191 186 183 175 170 163 163 163 165 159 153 151 153 152 154 153 149 144 143 141 149 158 159 151 145 143 132 133 130 124 134 136 136 131 120 112 108 110 112 116 118 114 111 114
166 134 162 179 188 203 175 182 191 213 67 115 203 182 73 45 11 175 163 136 181 188 165 164 194 160 177 176 62 162 179 186 192 198 198 190 176 182 191 195 196 191 188 181 174 170 172 170 162 161 162 158 154 154 154 154 155 154 154 154 148 146 150 154 152 141 147 143 128 132 134 143 139 136 128 131 130 128 124 117 114 120 123 121 120 119
273 125 177 199 176 169 96 188 193 220 250 208 190 91 179 179 205 247 138 170 168 185 154 189 293 246 207 181 146 179 191 194 194 189 188 188 191 196 191 193 189 185 179 172 171 166 169 169 166 164 158 152 154 153 153 154 146 148 157 158 153 152 152 152 150 140 140 131 127 138 149 138 128 124 124 110 107 113 123 126 127 123 120 122 125 123
290 174 141 246 198 145 164 189 193 189 142 346 115 178 13 274 220 151 221 17 196 173 151 153 172 217 195 213 182 182 199 195 184 179 188 190 195 195 184 187 183 177 174 167 167 167 169 169 166 162 156 155 152 153 154 152 155 156 155 145 133 141 138 137 136 136 129 125 127 129 127 123 123 127 129 133 135 131 126 127 128 128 129 130 125 120
74 335 155 162 117 152 190 191 200 188 174 174 189 188 162 241 358 301 95 223 185 162 197 161 193 219 195 205 193 192 189 196 180 185 191 193 198 190 180 183 182 175 171 170 161 161 162 157 153 151 154 153 148 146 147 151 154 152 147 131 133 143 149 137 139 134 127 127 130 133 130 127 129 134 134 128 117 109 117 125 129 127 128 123 118 122
93 243 165 131 164 194 187 142 170 187 183 189 187 186 188 166 172 189 207 85 154 241 185 180 219 207 203 136 199 205 205 184 185 189 188 195 189 179 178 184 179 171 170 170 169 162 159 153 145 143 145 147 144 148 150 149 149 149 149 140 134 136 142 133 135 132 127 130 130 130 132 125 118 116 117 116 121 122 128 127 127 133 132 118 114 122
190 80 137 165 180 160 88 140 196 169 171 156 191 179 186 198 208 200 203 182 110 65 357 39 359 173 67 91 286 284 275 234 207 187 189 183 175 176 180 176 171 165 166 171 166 159 159 151 149 149 149 149 148 149 148 146 150 152 151 145 148 146 144 144 139 133 125 120 118 115 126 124 126 128 127 126 128 127 125 124 125 131 125 118 118 120
177 277 132 89 75 291 354 305 155 159 148 155 208 198 176 201 205 211 194 98 206 114 202 184 238 215 120 299 289 263 212 186 181 186 172 158 166 177 172 167 163 159 160 162 154 146 143 141 145 147 151 150 148 150 152 153 152 152 151 142 137 143 142 135 133 131 129 129 130 127 121 112 114 117 117 114 116 119 125 127 124 124 117 118 126 125
196 238 254 127 147 163 111 112 137 182 188 203 196 188 197 173 149 27 61 56 226 197 215 173 227 252 126 322 59 118 161 170 169 169 160 168 174 169 166 166 163 155 152 156 150 143 138 142 145 149 151 150 150 150 152 154 155 153 149 140 141 143 141 131 135 136 131 129 129 122 120 122 121 122 123 124 125 123 125 126 125 125 124 125 126 127
261 155 186 149 149 161 175 180 183 184 198 184 194 149 196 176 171 151 201 172 222 67 167 209 251 267 141 119 100 118 152 157 156 154 162 167 171 166 165 164 160 158 155 148 146 147 149 151 151 152 148 147 151 151 152 154 153 146 135 135 137 142 140 132 133 132 128 125 121 122 123 126 125 125 127 127 127 129 129 129 129 129 128 131 131 132
85 39 290 317 183 177 185 130 39 48 118 187 163 167 166 199 184 199 51 173 205 140 220 197 244 288 300 223 129 148 165 165 167 169 163 170 169 164 156 158 162 160 159 153 152 147 143 147 152 151 155 152 149 151 154 153 152 143 128 132 143 144 133 127 128 129 126 124 125 125 126 128 130 130 130 132 131 131 131 131 133 136 133 136 136 137
71 270 304 215 267 288 322 255 149 172 176 185 170 178 165 171 186 181 199 208 102 133 232 237 217 266 264 277 161 176 178 178 178 174 170 169 170 165 160 156 155 155 160 153 148 149 150 149 151 155 153 149 149 147 149 153 156 144 141 143 142 136 127 130 131 131 127 126 124 127 130 128 130 130 129 128 130 130 129 131 135 131 130 133 135 138
146 281 360 108 286 284 271 255 208 248 189 169 182 167 180 177 177 196 205 138 169 219 232 245 186 217 258 274 24 187 177 185 187 180 175 170 161 152 153 155 156 158 161 156 157 157 154 155 154 155 159 152 144 154 148 145 153 142 144 148 141 133 132 132 132 134 135 131 129 130 130 127 125 126 131 134 132 132 132 131 126 128 131 133 131 130
120 306 295 269 296 287 275 242 197 198 198 167 167 175 175 171 187 192 203 194 192 214 217 283 233 250 266 337 305 175 155 166 175 173 166 166 165 162 161 159 159 161 161 159 158 161 160 160 157 157 158 155 156 154 158 158 155 147 145 148 143 138 142 136 133 136 137 136 133 131 131 131 131 134 135 135 135 132 130 128 130 132 133 132 131 130
249 193 68 318 301 310 26 60 168 179 160 183 174 167 170 175 183 194 205 144 236 281 248 166 260 281 269 201 121 144 137 155 163 175 175 171 166 162 164 164 163 160 163 162 162 161 160 160 161 155 154 162 160 159 160 157 146 144 147 147 142 140 147 141 133 131 133 130 133 134 134 133 135 136 137 135 127 127 130 130 132 134 132 129 130 133
14 273 200 311 313 319 31 80 157 154 167 175 173 182 171 173 183 181 195 187 175 216 272 347 279 268 223 130 138 156 160 166 173 178 176 176 170 169 167 168 166 165 167 166 160 157 164 165 165 167 168 167 166 160 152 145 149 150 155 153 147 144 146 138 133 132 132 135 138 141 138 135 137 136 132 132 131 131 130 131 134 136 136 135 135 137
250 318 313 346 320 344 14 111 128 123 116 166 213 198 180 178 153 128 309 156 211 182 177 192 238 284 52 165 156 178 177 176 175 181 181 180 178 175 174 169 164 166 169 167 171 169 168 170 170 168 166 167 167 159 153 149 153 158 154 152 144 140 143 137 131 130 135 141 141 140 137 137 138 137 138 138 134 130 133 136 135 136 137 137 135 134
271 275 290 351 286 341 14 117 136 131 168 209 167 173 170 173 171 169 197 203 204 182 212 240 271 3 210 183 192 182 191 191 187 184 186 181 177 173 173 171 173 174 173 171 175 176 171 165 166 169 160 156 156 153 144 153 156 156 159 150 146 148 147 136 129 132 136 140 141 141 142 143 145 148 144 137 133 134 136 136 133 133 128 122 121 117
249 295 267 134 279 306 17 203 139 161 202 60 32 138 26 332 182 188 205 219 193 216 287 265 229 240 211 209 214 221 197 171 184 179 180 184 177 173 173 178 179 181 182 181 175 174 177 176 167 156 154 153 148 149 145 146 156 146 140 152 149 151 147 142 139 138 141 142 145 147 149 152 150 138 133 135 136 136 131 124 119 120 126 133 133 119
223 257 280 225 290 141 154 171 149 182 6 360 53 83 157 83 15 106 224 209 199 209 211 241 220 224 213 218 221 192 184 147 164 187 182 178 180 179 181 184 184 184 184 183 177 171 174 171 168 167 165 150 148 152 157 148 143 148 161 156 141 145 147 147 143 141 142 146 153 156 157 153 146 143 142 141 138 130 129 125 132 134 140 144 150 145
282 269 222 308 91 343 341 93 27 316 105 117 123 163 183 165 171 184 199 234 184 196 190 198 111 204 194 203 170 152 144 143 159 189 196 191 187 186 185 184 183 185 183 182 175 172 158 153 150 150 146 154 161 157 161 145 146 147 145 156 146 138 144 148 150 152 151 151 157 160 160 154 149 147 148 147 142 137 138 139 147 150 162 158 153 149
188 267 198 294 16 21 293 128 114 148 157 153 42 15 239 279 3 4 187 207 137 191 190 193 205 172 176 169 159 152 153 136 188 214 199 196 189 184 182 181 176 169 169 163 162 149 149 152 151 149 155 160 165 164 154 150 155 151 154 157 152 145 148 158 159 158 154 155 160 159 156 153 148 144 147 150 148 153 149 144 151 162 168 163 163 168
347 359 119 29 354 295 256 116 134 119 79 9 327 303 10 250 199 202 210 212 75 195 185 198 185 184 174 168 163 160 168 193 223 213 186 186 185 184 182 181 175 169 166 164 162 160 159 158 158 159 161 163 162 159 149 152 153 152 155 154 157 160 156 165 161 162 163 160 156 155 150 149 151 153 157 156 158 154 150 156 161 166 169 167 164 159
257 327 335 349 340 72 355 208 133 203 78 19 258 301 341 144 176 177 200 206 94 226 191 187 186 179 180 173 168 180 203 165 296 293 169 180 179 175 176 172 175 171 176 169 168 162 156 150 148 161 167 169 167 157 156 155 158 161 160 163 163 166 168 171 171 169 154 141 142 146 150 153 154 152 152 155 151 150 152 150 154 164 167 163 162 155
332 341 50 311 318 39 3 333 272 91 274 263 283 331 147 222 226 171 199 95 114 253 194 196 190 182 175 175 183 185 230 308 294 321 159 156 160 168 167 169 174 167 171 173 169 150 151 157 161 167 170 171 161 158 159 161 162 166 165 163 169 177 177 166 149 143 149 147 147 154 155 155 157 156 161 160 156 153 148 155 160 160 161 160 157 154
350 322 109 169 240 266 170 289 29 298 255 290 332 311 279 163 160 185 77 330 313 297 134 195 186 184 185 185 186 141 346 285 325 195 163 164 168 168 164 167 161 164 159 160 152 155 157 158 162 167 167 163 159 159 161 162 164 166 163 166 179 178 163 152 146 148 157 162 160 161 160 159 160 158 154 153 151 150 150 150 153 158 159 160 155 152
187 349 310 291 215 134 142 68 76 125 72 73 320 118 7 304 72 7 292 226 216 289 264 205 199 178 185 187 177 85 245 348 53 143 169 172 166 162 166 162 161 162 161 152 156 162 156 161 163 164 162 154 155 160 163 165 164 165 167 179 181 168 153 150 150 153 155 153 159 163 162 161 156 155 153 154 155 152 153 154 163 166 161 156 154 152
191 153 282 274 210 333 22 64 19 23 316 35 350 39 9 12 340 307 279 13 118 238 270 221 215 187 190 192 175 117 46 55 103 149 156 166 168 166 165 159 156 152 154 154 159 159 159 159 162 161 161 155 158 159 163 166 164 167 174 178 151 133 134 137 136 145 150 155 156 154 158 158 162 162 159 157 156 155 157 163 168 168 165 161 157 156
204 187 237 314 44 235 341 8 360 298 283 303 241 300 282 298 280 257 265 284 335 33 187 294 22 177 196 189 161 143 108 337 168 172 169 171 169 169 172 171 164 163 165 163 164 157 160 158 159 156 153 158 161 164 165 167 164 165 171 158 145 145 148 152 150 157 163 163 155 155 157 160 163 163 161 161 162 163 163 164 168 166 168 166 165 163
352 93 112 210 250 223 253 257 297 314 334 332 281 242 290 321 345 323 319 343 23 353 276 325 315 225 177 179 155 155 164 152 162 178 180 171 168 168 167 167 165 161 159 157 151 158 163 156 154 150 151 160 164 163 167 173 171 169 174 148 151 155 154 153 160 163 165 167 163 149 151 156 161 160 160 162 168 167 168 166 169 167 167 174 172 169
241 165 205 275 304 346 101 334 288 62 347 303 324 317 233 249 319 316 317 319 336 353 7 262 272 285 162 169 175 153 165 179 167 170 167 163 166 166 168 168 165 169 163 165 154 156 155 153 153 152 150 156 166 167 173 171 171 165 143 145 149 151 153 156 157 157 159 165 166 161 154 159 163 163 165 167 169 171 172 173 174 170 171 179 177 175
173 202 31 172 14 16 259 133 296 297 257 280 284 340 354 341 346 354 335 310 322 336 333 342 186 97 137 152 164 158 163 182 169 161 167 170 170 173 173 170 163 162 165 151 146 159 149 154 153 155 159 161 165 164 165 169 162 151 147 148 148 149 150 154 162 164 166 162 165 166 163 158 155 159 167 172 174 174 176 180 181 178 180 184 180 178
78 162 286 204 274 313 318 288 279 265 88 343 323 294 316 314 317 329 346 342 350 19 29 35 21 37 114 121 144 153 147 163 144 158 157 161 161 167 169 165 165 165 163 155 161 160 159 158 158 160 164 164 165 161 162 157 145 154 154 153 151 149 151 156 162 159 155 159 162 168 168 156 162 170 166 166 168 173 180 181 183 185 187 189 184 184
194 220 127 173 204 167 155 149 287 160 155 111 354 352 338 345 309 310 332 357 10 10 17 22 36 41 67 85 127 148 151 150 151 155 150 162 163 156 153 154 157 157 159 154 152 154 152 154 156 162 163 155 159 161 164 159 147 150 152 152 155 157 153 149 151 156 162 165 163 158 163 164 162 165 163 165 170 169 171 161 264 205 191 183 197 190
273 218 188 207 185 115 264 254 224 221 124 279 299 322 320 334 329 355 10 351 360 4 336 354 7 39 45 39 20 78 133 141 141 144 137 152 154 156 157 156 155 157 155 149 151 154 154 159 158 157 152 157 160 162 162 153 157 159 159 156 159 160 154 155 155 158 157 165 166 165 161 160 167 165 162 159 158 159 170 175 135 42 17 334 165 177